This demonstration page uses our WeatherBlox Daily Observations layout. Learn more.

Left ArrowRight Arrow

Hourly Observations for May 13, 2015

Temp ( °F °C ) Dew Point ( °F °C ) Humidity (%) Winds ( mph kmh ) Pressure ( in mb ) Visibility ( mi km ) Precip ( " mm )
12:51 am 00:51 Clear 62 16.7 39 3.9 43 43 E 10 17 29.89 1012 10 16 0.00 0.00
1:51 am 01:51 Clear 60 15.6 39 3.9 46 46 E 12 19 29.88 1012 10 16 0.00 0.00
2:51 am 02:51 Clear 58 14.4 39 3.9 50 50 E 10 17 29.89 1012 10 16 0.00 0.00
3:51 am 03:51 Clear 58 14.4 39 3.9 50 50 E 10 17 29.89 1012 10 16 0.00 0.00
4:51 am 04:51 Clear 58 14.4 39 3.9 50 50 E 12 19 29.90 1012 10 16 0.00 0.00
5:51 am 05:51 Sunny 58 14.4 39 3.9 50 50 ESE 9 15 29.92 1013 10 16 0.00 0.00
6:51 am 06:51 Sunny 61 16.1 41 5 48 48 SE 13 20 29.94 1014 10 16 0.00 0.00
7:51 am 07:51 Sunny 64 17.8 42 5.6 45 45 ESE 8 13 29.95 1014 10 16 0.00 0.00
8:51 am 08:51 Sunny 68 20 41 5 38 38 E 6 9 29.94 1014 10 16 0.00 0.00
9:51 am 09:51 Sunny 72 22.2 41 5 33 33 E 7 11 29.93 1014 10 16 0.00 0.00
10:51 am 10:51 Sunny 74 23.3 39 3.9 28 28 ESE 6 9 29.91 1013 10 16 0.00 0.00
11:51 am 11:51 Sunny 77 25 35 1.7 22 22 SE 5 7 29.88 1012 10 16 0.00 0.00
12:51 pm 12:51 Sunny 81 27.2 35 1.7 19 19 VRB 7 11 29.84 1011 10 16 0.00 0.00
1:51 pm 13:51 Sunny 82 27.8 34 1.1 18 18 SE 10 17 29.82 1010 10 16 0.00 0.00
2:51 pm 14:51 Sunny 84 28.9 33 0.6 16 16 ENE 10 17 29.79 1009 10 16 0.00 0.00
3:51 pm 15:51 Sunny 85 29.4 33 0.6 15 15 undefined N/A 29.75 1008 10 16 0.00 0.00
4:51 pm 16:51 Sunny 85 29.4 33 0.6 15 15 E 8 13 29.74 1007 10 16 0.00 0.00
5:51 pm 17:51 Sunny 83 28.3 33 0.6 17 17 SSW 3 6 29.73 1007 10 16 0.00 0.00
6:51 pm 18:51 Mostly Cloudy 81 27.2 33 0.6 18 18 W 6 9 29.72 1007 10 16 0.00 0.00
7:51 pm 19:51 Mostly Cloudy 80 26.7 35 1.7 20 20 SW 8 13 29.74 1007 10 16 0.00 0.00
8:51 pm 20:51 Mostly Cloudy 79 26.1 37 2.8 22 22 W 9 15 29.74 1007 10 16 0.00 0.00
9:51 pm 21:51 Mostly Cloudy 77 25 36 2.2 23 23 S 3 6 29.75 1008 10 16 0.00 0.00
10:51 pm 22:51 Mostly Clear 74 23.3 37 2.8 26 26 Calm 29.75 1008 10 16 0.00 0.00
11:51 pm 23:51 Clear 69 20.6 35 1.7 29 29 E 6 9 29.75 1007 10 16 0.00 0.00

Powered by AerisWeather